User: anonymous   Login
Location: Unspecified
(0.0000°N, 0.0000°E)
Time: 02:58:24
(UTC+00:00)
Language:

NOSS 2-2 (C) - Orbit

View from above orbital plane
View from above orbital plane
View from above satellite
View from above satellite

Ground track
Ground track

The orbit data is extracted from the following two-line orbital elements,

1 21799U 91076C   17228.04406955 0.00000000  00000-0  00000-0 0    07
2 21799  63.3540 305.4217 0755000  25.9435 334.0565 13.41107681    06
Epoch (UTC): 16 August 2017 01:03:27
Eccentricity: 0.0755000
inclination: 63.3540°
perigee height: 540 km
apogee height: 1670 km
right ascension of ascending node: 305.4217°
argument of perigee: 25.9435°
revolutions per day: 13.41107681
mean anomaly at epoch: 334.0565°
orbit number at epoch: 0

The dashed part of the orbit path shows where the satellite is in the earth's shadow,  

DLR